[[{"header":{"parameterUnit":"m.s-1","parameterCategory":1,"la1":30.2991,"la2":30.254,"lo1":-89.0895,"lo2":-89.0444,"dy":0.0017,"dx":0.0017,"nx":28,"ny":28,"refTime":"2025-09-01T09:00:00:Z","depth":0,"parameterNumber":2,"parameterNumberName":"U-component_of_WINDS"},"data":[0,0,0,0,0,0,0,0,0,0,0,0,0,0,0,0,0,0,0,0,0,0,0,0,0,0,0,0,0,0,0,0,0,0,0,0,0,0,0,0,0,0,0,0,0,0,0,0,0,0,0,0,0,0,0,0,0,0,-5.0764,-5.0765,0,-5.0844,-5.0845,-5.0846,-5.0739,-5.0735,-5.0731,-5.0727,-5.0812,-5.0818,-5.0823,0,0,0,0,0,0,0,0,0,0,0,0,0,-5.0522,-5.0527,-5.0764,-5.0765,-5.0766,-5.0844,-5.0845,-5.0846,-5.074,-5.0735,-5.073,-5.0726,-5.081,-5.0817,-5.0824,0,0,0,0,0,0,0,0,0,0,0,0,0,-5.0617,-5.0529,-5.0764,-5.0722,-5.0719,-5.0844,-5.0845,-5.0847,-5.0741,-5.0735,-5.0729,-5.0724,-5.0808,-5.0816,-5.0825,-5.0995,0,0,-5.0852,-5.0855,0,0,0,0,0,0,0,0,-5.0612,-5.0626,-5.0728,-5.0725,-5.0722,-5.0776,-5.0791,-5.0897,-5.0742,-5.0733,-5.0727,-5.0721,-5.0805,-5.0813,-5.0841,-5.0999,-5.1003,-5.0852,-5.0858,-5.0861,-5.0864,0,0,0,0,0,0,0,-5.0606,-5.0622,-5.0796,-5.0729,-5.0726,-5.0701,-5.0708,-5.081,-5.08,-5.0733,-5.0725,-5.0736,-5.0802,-5.0833,-5.0842,-5.1004,-5.0852,-5.086,-5.0865,-5.0869,-5.1307,-5.1313,0,0,0,0,0,0,-5.0604,-5.0617,-5.0793,-5.0798,-5.0652,-5.071,-5.0718,-5.0764,-5.0799,-5.0798,-5.0741,-5.0731,-5.0821,-5.0832,-5.0845,-5.1048,-5.0861,-5.087,-5.0875,-5.1301,-5.1309,-5.1316,0,0,0,0,0,0,-5.0599,-5.062,-5.079,-5.0706,-5.0726,-5.072,-5.0774,-5.0769,-5.08,-5.0805,-5.0803,-5.0774,-5.0817,-5.0833,-5.0959,-5.1049,-5.0874,-5.0882,-5.1293,-5.1303,-5.1312,-5.1455,0,0,0,0,0,0,-5.0592,-5.0619,-5.0683,-5.0708,-5.0731,-5.0902,-5.0779,-5.0775,-5.0815,-5.0802,-5.0835,-5.0835,-5.0813,-5.0946,-5.0968,-5.1058,-5.0888,-5.1285,-5.1298,-5.1309,-5.1442,-5.1468,-5.149,0,0,0,0,0,-5.0584,-5.072,-5.0687,-5.0709,-5.081,-5.0908,-5.0921,-5.0892,-5.0822,-5.0887,-5.0891,-5.0834,-5.1036,-5.096,-5.0983,-5.1078,-5.128,-5.1294,-5.1308,-5.1431,-5.1463,-5.149,0,0,0,0,0,0,-5.0706,-5.0723,-5.0686,-5.0834,-5.087,-5.0889,-5.097,-5.0926,-5.0983,-5.0969,-5.0932,-5.094,-5.1076,-5.1089,-5.1004,-5.1245,-5.1146,-5.1166,-5.1232,-5.1262,-5.1286,-5.1281,-5.0896,0,0,0,0,0,-5.075,-5.0827,-5.0838,-5.0968,-5.0988,-5.0976,-5.1018,-5.0992,-5.1029,-5.1044,-5.1056,-5.1095,-5.1166,-5.1215,-5.1281,-5.1443,-5.145,-5.152,-5.1544,-5.1563,-5.1582,-5.167,-5.1702,-5.1363,-5.1363,-5.1362,0,0,-5.0843,-5.0861,-5.0912,-5.0993,-5.1018,-5.11,-5.099,-5.1081,-5.1141,-5.1057,-5.1178,-5.1189,-5.1229,-5.1374,-5.1439,-5.139,-5.1677,-5.1582,-5.1598,-5.1605,-5.1688,-5.172,-5.1749,-5.1373,-5.1371,-5.1369,0,0,-5.1053,-5.1074,-5.1185,-5.1212,-5.1252,-5.1243,-5.127,-5.1297,-5.1301,-5.142,-5.136,-5.1432,-5.1556,-5.1588,-5.162,-5.1844,-5.1795,-5.1866,-5.1993,-5.208,-5.2107,-5.2131,-5.2212,-5.2242,-5.1884,-5.1884,-5.1885,0,-5.1162,-5.1283,-5.1248,-5.1344,-5.1382,-5.1309,-5.1422,-5.1451,-5.151,-5.1539,-5.1482,-5.1638,-5.166,-5.1813,-5.1867,-5.1895,-5.1926,-5.1863,-5.2106,-5.2129,-5.2151,-5.2228,-5.2259,-5.1893,-5.1892,-5.1891,-5.189,0,-5.1417,-5.1501,-5.1586,-5.1646,-5.1693,-5.1797,-5.1779,-5.1832,-5.1803,-5.1801,-5.1925,-5.1949,-5.2019,-5.2053,-5.2026,-5.2203,-5.2172,-5.2111,-5.2011,-5.2192,-5.2265,-5.2294,-5.1905,-5.1902,-5.19,-5.1897,0,0,-5.1706,-5.1745,-5.1778,-5.1804,-5.1843,-5.1908,-5.201,-5.2078,-5.2125,-5.2168,-5.2254,-5.2361,-5.2306,-5.2343,-5.2318,-5.2394,-5.2573,-5.2325,-5.2325,-5.2372,-5.2772,-5.2819,-5.2854,-5.254,-5.2545,-5.2549,-5.2769,0,-5.1918,-5.2093,-5.2065,-5.2235,-5.2313,-5.2246,-5.2334,-5.2369,-5.237,-5.2438,-5.2439,-5.2516,-5.2436,-5.2459,-5.2531,-5.2536,-5.2653,-5.2519,-5.2621,-5.2625,-5.2614,-5.2891,-5.294,-5.3147,-5.2797,-5.2802,-5.2805,0,-5.2188,-5.2242,-5.2419,-5.2447,-5.2479,-5.2559,-5.2621,-5.2686,-5.2724,-5.2719,-5.2761,-5.2723,-5.2826,-5.2723,-5.2866,-5.2776,-5.2815,-5.2824,-5.2832,-5.2841,-5.2727,-5.291,-5.3211,-5.3243,-5.2849,-5.2846,-5.2843,0,-5.2384,-5.25,-5.2622,-5.2647,-5.2682,-5.274,-5.2758,-5.2789,-5.2833,-5.2887,-5.2915,-5.2981,-5.3018,-5.307,-5.3051,-5.2978,-5.3198,-5.3093,-5.3199,-5.32,-5.325,-5.3247,-5.3564,-5.3273,-5.3273,-5.3272,-5.3271,0,-5.2624,-5.2736,-5.2711,-5.2786,-5.291,-5.2878,-5.3001,-5.3011,-5.304,-5.3117,-5.3062,-5.3136,-5.3105,-5.3177,-5.3163,-5.3285,-5.3301,-5.3302,-5.3297,-5.3308,-5.3308,-5.3335,-5.3321,-5.328,-5.3278,-5.3277,-5.3275,0,-5.2864,-5.2852,-5.2981,-5.3003,-5.3012,-5.3102,-5.3122,-5.3193,-5.319,-5.3288,-5.3309,-5.3305,-5.3387,-5.3373,-5.3464,-5.3455,-5.3607,-5.3584,-5.3595,-5.359,-5.3697,-5.3688,-5.4043,-5.4089,-5.3767,-5.377,-5.3772,0,-5.3019,-5.3104,-5.3136,-5.3183,-5.3205,-5.3281,-5.3326,-5.3297,-5.3346,-5.3396,-5.3462,-5.3539,-5.3599,-5.3734,-5.374,-5.3809,-5.3789,-5.3908,-5.3799,-5.3808,-5.3793,-5.3789,-5.3798,-5.3931,-5.3934,-5.3937,-5.394,0,-5.3296,-5.3286,-5.3351,-5.3416,-5.347,-5.352,-5.3564,-5.3606,-5.3582,-5.3639,-5.3722,-5.3769,-5.3862,-5.394,-5.4006,-5.4024,-5.398,-5.3974,-5.4002,-5.4015,-5.4019,-5.402,-5.3656,-5.3966,-5.3964,-5.3962,-5.396,-5.3959,-5.3499,-5.3572,-5.3606,-5.3682,-5.3712,-5.3755,-5.3824,-5.3829,-5.3898,-5.3971,-5.395,-5.4045,-5.4082,-5.4165,-5.4192,-5.4266,-5.4222,-5.4263,-5.4274,-5.4285,-5.4299,-5.4006,-5.4278,-5.4277,-5.4277,-5.4276,-5.4275,0,-5.3775,-5.3794,-5.3863,-5.3927,-5.3987,-5.3938,-5.3985,-5.4039,-5.4123,-5.4161,-5.4221,-5.4318,-5.4394,-5.4406,-5.4478,-5.4536,-5.4517,-5.4556,-5.4552,-5.4558,-5.4333,-5.4302,-5.457,-5.457,-5.457,-5.457,-5.457,-5.457,-5.3925,-5.4047,-5.4041,-5.4177,-5.4195,-5.4287,-5.4319,-5.4359,-5.4389,-5.4499,-5.4562,-5.4569,-5.4597,-5.4671,-5.4739,-5.4741,-5.4771,-5.4818,-5.4813,-5.4603,-5.4573,-5.4545,-5.4516,-5.4825,-5.4825,-5.5031,-5.5033,-5.5035]},{"header":{"parameterUnit":"m.s-1","parameterCategory":1,"la1":30.2991,"la2":30.254,"lo1":-89.0895,"lo2":-89.0444,"dy":0.0017,"dx":0.0017,"nx":28,"ny":28,"refTime":"2025-09-01T09:00:00:Z","depth":0,"parameterNumber":3,"parameterNumberName":"V-component_of_WINDS"},"data":[0,0,0,0,0,0,0,0,0,0,0,0,0,0,0,0,0,0,0,0,0,0,0,0,0,0,0,0,0,0,0,0,0,0,0,0,0,0,0,0,0,0,0,0,0,0,0,0,0,0,0,0,0,0,0,0,0,0,-0.0348,-0.0348,0,-0.0335,-0.0335,-0.0335,-0.028,-0.0279,-0.0278,-0.0276,-0.0268,-0.0269,-0.027,0,0,0,0,0,0,0,0,0,0,0,0,0,-0.0328,-0.0329,-0.0348,-0.0348,-0.0348,-0.0335,-0.0335,-0.0335,-0.028,-0.0279,-0.0277,-0.0276,-0.0267,-0.0269,-0.027,0,0,0,0,0,0,0,0,0,0,0,0,0,-0.0329,-0.0329,-0.0348,-0.0319,-0.0316,-0.0335,-0.0335,-0.0335,-0.0281,-0.0279,-0.0277,-0.0275,-0.0267,-0.0268,-0.027,-0.0317,0,0,-0.0274,-0.0275,0,0,0,0,0,0,0,0,-0.0329,-0.0329,-0.0323,-0.0321,-0.0318,-0.0307,-0.0325,-0.0329,-0.0281,-0.0294,-0.0276,-0.0274,-0.0283,-0.0283,-0.0285,-0.0317,-0.0316,-0.0274,-0.0275,-0.0276,-0.0276,0,0,0,0,0,0,0,-0.0329,-0.033,-0.0343,-0.0323,-0.032,-0.0307,-0.0305,-0.0325,-0.03,-0.0293,-0.0289,-0.0288,-0.0281,-0.0283,-0.0284,-0.0316,-0.0274,-0.0276,-0.0276,-0.0277,-0.0385,-0.0387,0,0,0,0,0,0,-0.0332,-0.033,-0.0343,-0.0343,-0.0318,-0.0309,-0.0307,-0.0313,-0.0299,-0.0295,-0.029,-0.0285,-0.0282,-0.0282,-0.0284,-0.0338,-0.0276,-0.0277,-0.0278,-0.0383,-0.0386,-0.0388,0,0,0,0,0,0,-0.0332,-0.0334,-0.0344,-0.0335,-0.0335,-0.0312,-0.0319,-0.0313,-0.0316,-0.0296,-0.0292,-0.0297,-0.028,-0.0281,-0.0309,-0.0337,-0.0278,-0.0279,-0.0381,-0.0384,-0.0387,-0.0447,0,0,0,0,0,0,-0.0332,-0.0334,-0.0352,-0.0336,-0.0336,-0.0369,-0.032,-0.0315,-0.0318,-0.0312,-0.0302,-0.0299,-0.0279,-0.0307,-0.031,-0.0338,-0.028,-0.0378,-0.0382,-0.0386,-0.0443,-0.0452,-0.046,0,0,0,0,0,-0.0331,-0.0371,-0.0353,-0.0355,-0.0357,-0.0371,-0.0371,-0.0346,-0.032,-0.0338,-0.0325,-0.0299,-0.0332,-0.031,-0.0313,-0.0342,-0.0376,-0.0381,-0.0385,-0.0439,-0.045,-0.046,0,0,0,0,0,0,-0.0393,-0.0368,-0.0348,-0.0383,-0.0379,-0.0361,-0.0383,-0.0359,-0.0363,-0.0358,-0.0328,-0.0327,-0.0358,-0.0352,-0.0328,-0.0386,-0.035,-0.0355,-0.0389,-0.04,-0.0408,-0.041,-0.0281,0,0,0,0,0,-0.041,-0.0422,-0.04,-0.0433,-0.0432,-0.0408,-0.0413,-0.0393,-0.0389,-0.0387,-0.0376,-0.0374,-0.0383,-0.0391,-0.0399,-0.044,-0.0438,-0.0461,-0.047,-0.0477,-0.0483,-0.0504,-0.0515,-0.0403,-0.0403,-0.0402,0,0,-0.0447,-0.0434,-0.0444,-0.0445,-0.044,-0.0453,-0.0407,-0.0424,-0.0434,-0.039,-0.0415,-0.0407,-0.0402,-0.0436,-0.0451,-0.0432,-0.0513,-0.0483,-0.0489,-0.0491,-0.051,-0.0521,-0.053,-0.0406,-0.0405,-0.0405,0,0,-0.0521,-0.0512,-0.0539,-0.0533,-0.0525,-0.0508,-0.0514,-0.0499,-0.0491,-0.0515,-0.0482,-0.0494,-0.0511,-0.0509,-0.051,-0.058,-0.0556,-0.0583,-0.0629,-0.065,-0.0659,-0.0667,-0.0693,-0.0702,-0.0588,-0.0588,-0.0589,0,-0.0568,-0.0587,-0.0556,-0.0574,-0.0576,-0.0533,-0.056,-0.0557,-0.0552,-0.0555,-0.0533,-0.0553,-0.0547,-0.058,-0.0596,-0.0598,-0.0605,-0.0586,-0.066,-0.0667,-0.0674,-0.0698,-0.0708,-0.0592,-0.0591,-0.0591,-0.0591,0,-0.0646,-0.0659,-0.0681,-0.0675,-0.0678,-0.0701,-0.0674,-0.0682,-0.0661,-0.0647,-0.0671,-0.0661,-0.0666,-0.0672,-0.0653,-0.0702,-0.0691,-0.0665,-0.0628,-0.0689,-0.0711,-0.072,-0.0597,-0.0596,-0.0595,-0.0594,0,0,-0.0762,-0.0736,-0.0745,-0.0741,-0.0727,-0.0737,-0.0757,-0.076,-0.0767,-0.0764,-0.0781,-0.0795,-0.077,-0.0771,-0.0751,-0.077,-0.0826,-0.0741,-0.0741,-0.0759,-0.088,-0.0901,-0.0912,-0.0808,-0.081,-0.0811,-0.088,0,-0.0834,-0.0866,-0.0837,-0.0876,-0.0887,-0.0846,-0.0863,-0.0857,-0.0843,-0.0852,-0.0837,-0.0847,-0.0813,-0.0814,-0.0829,-0.0816,-0.085,-0.081,-0.0826,-0.0827,-0.0831,-0.0923,-0.0946,-0.1012,-0.0889,-0.089,-0.0891,0,-0.0923,-0.0921,-0.096,-0.0942,-0.0945,-0.0962,-0.0961,-0.0969,-0.0961,-0.0949,-0.0949,-0.0923,-0.0942,-0.0904,-0.093,-0.0904,-0.0908,-0.0901,-0.0903,-0.0906,-0.0865,-0.0931,-0.1033,-0.1043,-0.0905,-0.0904,-0.0903,0,-0.1005,-0.1013,-0.1037,-0.1035,-0.1014,-0.1026,-0.1018,-0.1007,-0.101,-0.1009,-0.1011,-0.1013,-0.1015,-0.1018,-0.0993,-0.0968,-0.1023,-0.0983,-0.1015,-0.1016,-0.1032,-0.1032,-0.1138,-0.1031,-0.1031,-0.103,-0.103,0,-0.1089,-0.1115,-0.1073,-0.1089,-0.1116,-0.1082,-0.1111,-0.1098,-0.1088,-0.1101,-0.1065,-0.1078,-0.1043,-0.1053,-0.1034,-0.1059,-0.1059,-0.1052,-0.1047,-0.1056,-0.1057,-0.1061,-0.1056,-0.1033,-0.1032,-0.1032,-0.1031,0,-0.1188,-0.116,-0.1184,-0.1161,-0.1155,-0.1177,-0.1157,-0.117,-0.1152,-0.1169,-0.1171,-0.1144,-0.1152,-0.1127,-0.1133,-0.1119,-0.1156,-0.1143,-0.1159,-0.1156,-0.119,-0.1188,-0.1304,-0.1318,-0.12,-0.1202,-0.1203,0,-0.1245,-0.1263,-0.1241,-0.1245,-0.1238,-0.1247,-0.1249,-0.1215,-0.1219,-0.1209,-0.1224,-0.1229,-0.1232,-0.1248,-0.1229,-0.1233,-0.1221,-0.1261,-0.1221,-0.123,-0.1223,-0.1223,-0.1225,-0.127,-0.1272,-0.1273,-0.1274,0,-0.1349,-0.1333,-0.1337,-0.1335,-0.1338,-0.1335,-0.1331,-0.1337,-0.1301,-0.1307,-0.1314,-0.1316,-0.132,-0.1326,-0.1325,-0.1317,-0.1291,-0.1286,-0.1294,-0.1305,-0.1314,-0.1311,-0.1183,-0.1284,-0.1283,-0.1282,-0.1282,-0.1281,-0.1429,-0.1443,-0.1429,-0.1434,-0.1426,-0.1421,-0.1432,-0.1414,-0.142,-0.1419,-0.1399,-0.141,-0.14,-0.1395,-0.139,-0.1399,-0.1381,-0.1392,-0.1395,-0.1399,-0.1406,-0.131,-0.1399,-0.1398,-0.1398,-0.1398,-0.1397,0,-0.1532,-0.152,-0.1525,-0.1518,-0.1521,-0.1492,-0.1484,-0.149,-0.15,-0.1491,-0.1493,-0.1501,-0.1506,-0.1487,-0.1489,-0.15,-0.1488,-0.1502,-0.1502,-0.1501,-0.1421,-0.1415,-0.1512,-0.1512,-0.1512,-0.1512,-0.1512,-0.1512,-0.1587,-0.1609,-0.1592,-0.161,-0.1597,-0.1607,-0.1605,-0.1601,-0.1594,-0.1604,-0.1607,-0.1593,-0.158,-0.1581,-0.1584,-0.1578,-0.1582,-0.1601,-0.1591,-0.1518,-0.1507,-0.1496,-0.149,-0.1601,-0.1601,-0.167,-0.167,-0.1671]}]]